TimeEDT,TemperatureF,Dew PointF,Humidity,Sea Level PressureIn,VisibilityMPH,Wind Direction,Wind SpeedMPH,Gust SpeedMPH,PrecipitationIn,Events,Conditions,WindDirDegrees,DateUTC
12:51 AM,66.0,64.0,93,29.80,5.0,WSW,8.1,21.9,0.01,Rain,Light Rain,240,2013-08-31 04:51:00
1:51 AM,64.0,63.0,96,29.77,7.0,SW,6.9,-,0.02,,Overcast,220,2013-08-31 05:51:00
2:30 AM,64.4,62.6,94,29.81,7.0,WSW,4.6,-,0.00,Rain,Light Rain,240,2013-08-31 06:30:00
2:40 AM,64.4,62.6,94,29.81,7.0,SW,4.6,-,0.00,,Overcast,220,2013-08-31 06:40:00
2:51 AM,64.0,63.0,96,29.78,6.0,Calm,Calm,-,0.00,,Overcast,0,2013-08-31 06:51:00
3:51 AM,63.0,62.1,97,29.78,6.0,Calm,Calm,-,N/A,,Overcast,0,2013-08-31 07:51:00
4:32 AM,62.6,60.8,94,29.80,2.5,Calm,Calm,-,N/A,,Overcast,0,2013-08-31 08:32:00
4:48 AM,62.6,60.8,94,29.80,3.0,Calm,Calm,-,N/A,,Mostly Cloudy,0,2013-08-31 08:48:00
4:51 AM,62.1,61.0,96,29.78,4.0,Calm,Calm,-,N/A,,Mostly Cloudy,0,2013-08-31 08:51:00
5:18 AM,62.6,60.8,94,29.80,2.0,Calm,Calm,-,N/A,,Mostly Cloudy,0,2013-08-31 09:18:00
5:46 AM,60.8,60.8,100,29.80,3.0,Calm,Calm,-,N/A,,Overcast,0,2013-08-31 09:46:00
5:51 AM,61.0,60.1,97,29.78,3.0,Calm,Calm,-,N/A,,Overcast,0,2013-08-31 09:51:00
6:51 AM,62.1,62.1,100,29.80,4.0,Calm,Calm,-,N/A,,Overcast,0,2013-08-31 10:51:00
7:23 AM,62.6,62.6,100,29.82,2.5,Calm,Calm,-,0.00,Rain,Light Rain,0,2013-08-31 11:23:00
7:51 AM,63.0,63.0,100,29.80,2.5,Calm,Calm,-,0.00,,Overcast,0,2013-08-31 11:51:00
7:59 AM,64.4,62.6,94,29.82,2.5,SSW,5.8,-,N/A,,Overcast,200,2013-08-31 11:59:00
8:09 AM,64.4,64.4,100,29.82,3.0,SSW,5.8,-,N/A,,Overcast,200,2013-08-31 12:09:00
8:17 AM,64.4,64.4,100,29.82,1.8,South,6.9,-,0.01,Rain,Light Rain,180,2013-08-31 12:17:00
8:51 AM,64.0,64.0,100,29.81,1.5,South,3.5,-,0.05,Rain,Light Rain,180,2013-08-31 12:51:00
9:18 AM,64.4,64.4,100,29.82,2.0,Calm,Calm,-,0.01,Rain,Light Rain,0,2013-08-31 13:18:00
9:31 AM,64.4,64.4,100,29.82,1.5,South,4.6,-,0.03,Rain,Light Rain,190,2013-08-31 13:31:00
9:42 AM,64.4,64.4,100,29.83,1.5,Calm,Calm,-,0.04,Rain,Light Rain,0,2013-08-31 13:42:00
9:51 AM,64.9,64.0,97,29.81,2.0,Calm,Calm,-,0.05,Rain,Light Rain,0,2013-08-31 13:51:00
10:03 AM,64.4,64.4,100,29.82,2.5,SSE,3.5,-,0.00,,Overcast,160,2013-08-31 14:03:00
10:08 AM,64.4,64.4,100,29.83,2.0,SSE,3.5,-,0.00,Rain,Light Rain,160,2013-08-31 14:08:00
10:25 AM,64.4,64.4,100,29.83,1.5,SSE,3.5,-,0.01,Rain,Light Rain,150,2013-08-31 14:25:00
10:35 AM,64.4,64.4,100,29.83,2.0,Calm,Calm,-,0.01,,Overcast,0,2013-08-31 14:35:00
10:42 AM,64.4,64.4,100,29.82,2.5,SSE,3.5,-,0.01,,Overcast,160,2013-08-31 14:42:00
10:49 AM,64.4,64.4,100,29.83,4.0,South,3.5,-,0.01,,Overcast,180,2013-08-31 14:49:00
10:51 AM,64.9,64.0,97,29.81,4.0,South,3.5,-,0.01,,Overcast,180,2013-08-31 14:51:00
11:07 AM,64.4,64.4,100,29.82,3.0,South,4.6,-,N/A,,Overcast,180,2013-08-31 15:07:00
11:19 AM,66.2,64.4,94,29.82,4.0,South,3.5,-,N/A,,Overcast,170,2013-08-31 15:19:00
11:51 AM,66.0,64.9,96,29.80,5.0,Calm,Calm,-,N/A,,Overcast,0,2013-08-31 15:51:00
12:03 PM,66.2,64.4,94,29.82,6.0,Calm,Calm,-,N/A,,Overcast,0,2013-08-31 16:03:00
12:21 PM,68.0,64.4,88,29.82,7.0,Calm,Calm,-,N/A,,Overcast,0,2013-08-31 16:21:00
12:51 PM,69.1,64.9,87,29.79,7.0,Calm,Calm,-,N/A,,Overcast,0,2013-08-31 16:51:00
1:51 PM,69.1,64.9,87,29.78,6.0,Calm,Calm,-,0.01,,Overcast,0,2013-08-31 17:51:00
1:58 PM,69.8,66.2,88,29.80,6.0,Calm,Calm,-,N/A,,Overcast,0,2013-08-31 17:58:00
2:26 PM,69.8,66.2,88,29.80,5.0,Calm,Calm,-,N/A,,Overcast,0,2013-08-31 18:26:00
2:51 PM,70.0,66.0,87,29.77,5.0,Calm,Calm,-,N/A,,Overcast,0,2013-08-31 18:51:00
3:47 PM,71.6,66.2,83,29.79,6.0,ENE,5.8,-,N/A,,Overcast,70,2013-08-31 19:47:00
3:51 PM,71.1,66.9,87,29.77,5.0,ENE,4.6,-,N/A,,Overcast,70,2013-08-31 19:51:00
3:58 PM,71.6,66.2,83,29.79,5.0,Calm,Calm,-,N/A,,Overcast,0,2013-08-31 19:58:00
4:30 PM,71.6,66.2,83,29.79,6.0,NNW,3.5,-,N/A,,Overcast,340,2013-08-31 20:30:00
4:43 PM,69.8,66.2,88,29.79,6.0,NE,5.8,-,N/A,,Overcast,50,2013-08-31 20:43:00
4:51 PM,70.0,66.9,90,29.77,5.0,NE,5.8,-,N/A,,Overcast,50,2013-08-31 20:51:00
5:24 PM,69.8,66.2,88,29.79,5.0,Calm,Calm,-,N/A,,Overcast,0,2013-08-31 21:24:00
5:32 PM,69.8,66.2,88,29.80,6.0,Calm,Calm,-,N/A,,Overcast,0,2013-08-31 21:32:00
5:44 PM,69.8,66.2,88,29.80,6.0,Calm,Calm,-,N/A,,Overcast,0,2013-08-31 21:44:00
5:51 PM,70.0,66.9,90,29.78,6.0,Calm,Calm,-,N/A,,Overcast,0,2013-08-31 21:51:00
5:58 PM,69.8,66.2,88,29.80,6.0,ENE,3.5,-,N/A,,Overcast,60,2013-08-31 21:58:00
6:10 PM,69.8,66.2,88,29.80,6.0,NE,3.5,-,N/A,,Overcast,40,2013-08-31 22:10:00
6:51 PM,70.0,66.9,90,29.79,6.0,Calm,Calm,-,N/A,,Overcast,0,2013-08-31 22:51:00
7:51 PM,69.1,66.9,93,29.80,6.0,Calm,Calm,-,N/A,,Overcast,0,2013-08-31 23:51:00
8:48 PM,68.0,66.2,94,29.82,7.0,Calm,Calm,-,N/A,,Overcast,0,2013-09-01 00:48:00
8:51 PM,68.0,66.0,93,29.81,7.0,Calm,Calm,-,N/A,,Overcast,0,2013-09-01 00:51:00
9:27 PM,66.2,64.4,94,29.83,7.0,Calm,Calm,-,N/A,,Overcast,0,2013-09-01 01:27:00
9:51 PM,66.9,64.9,93,29.83,6.0,Calm,Calm,-,N/A,,Overcast,0,2013-09-01 01:51:00
9:58 PM,66.2,64.4,94,29.84,6.0,Calm,Calm,-,N/A,,Overcast,0,2013-09-01 01:58:00
10:42 PM,66.2,64.4,94,29.86,6.0,NW,4.6,-,N/A,,Overcast,320,2013-09-01 02:42:00
10:49 PM,66.2,64.4,94,29.85,5.0,Variable,3.5,-,N/A,,Overcast,0,2013-09-01 02:49:00
10:51 PM,66.0,64.9,96,29.84,5.0,North,3.5,-,N/A,,Overcast,350,2013-09-01 02:51:00
11:51 PM,66.0,64.9,96,29.85,7.0,Calm,Calm,-,N/A,,Overcast,0,2013-09-01 03:51:00